Location: Ferchesar
(52.6477°N, 12.4298°E)
Time: 08:52:44
(UTC+01:00)

Explorer 7 - Visible Passes

Search period start: 02 December 2021 00:00
Search period end: 12 December 2021 00:00
Orbit: 483 x 675 km, 50.3° (Epoch: 01 December)

Date Brightness Start Highest point End Pass type
(mag) Time Alt. Az. Time Alt. Az. Time Alt. Az.
02 Dec 9.7 06:10:01 10° S 06:12:43 17° SE 06:15:19 10° ESE visible
03 Dec 9.2 06:13:11 10° SSW 06:16:31 22° SSE 06:19:44 10° E visible
04 Dec 8.6 06:16:39 10° SSW 06:20:22 30° SSE 06:23:56 10° E visible
05 Dec 9.6 04:43:12 12° SSE 04:44:33 13° SE 04:46:33 10° ESE visible
05 Dec 8.1 06:20:18 10° SW 06:24:16 38° SSE 06:28:02 10° E visible
06 Dec 9.1 04:47:45 18° SSE 04:48:19 18° SE 04:51:14 10° E visible
06 Dec 7.7 06:24:04 10° SW 06:28:11 46° SSE 06:32:05 10° E visible
07 Dec 8.7 04:52:06 25° SSE 04:52:07 25° SSE 04:55:33 10° E visible
07 Dec 7.4 06:28:22 13° WSW 06:32:08 54° SSE 06:36:05 10° E visible
08 Dec 8.4 04:56:18 32° SE 04:56:18 32° SE 04:59:43 10° E visible
08 Dec 7.2 06:32:34 14° WSW 06:36:05 61° S 06:40:04 10° E visible
09 Dec 8.1 05:00:23 38° SE 05:00:23 38° SE 05:03:47 10° E visible
09 Dec 7.1 06:36:39 15° WSW 06:40:03 64° S 06:44:03 10° E visible
10 Dec 7.8 05:04:23 45° SE 05:04:23 45° SE 05:07:48 10° E visible
10 Dec 7.1 06:40:39 16° W 06:44:02 63° S 06:48:01 10° ESE visible
11 Dec 7.6 05:08:20 50° SE 05:08:20 50° SE 05:11:47 10° E visible
11 Dec 7.2 06:44:36 15° W 06:47:59 59° S 06:51:57 10° ESE visible
